Harlingen, TX

1:15 AM CDT on March 26, 2017 (GMT -0500)
Valley International

Weather History for KHRL - September, 2013

Change the Weather History Date:

Sunday, September 29, 2013

  Actual Average Record
Temperature  
Mean Temperature 82 °F 79 °F  
Max Temperature 90 °F 89 °F 104 °F (1953)
Min Temperature 73 °F 70 °F 53 °F (1967)
Degree Days  
Heating Degree Days 0 0  
Month to date heating degree days 0 0  
Since 1 July heating degree days 0 0  
Cooling Degree Days 17 14  
Month to date cooling degree days 481 490  
Year to date cooling degree days 3498 3414  
Growing Degree Days 31 (Base 50)    
Moisture  
Dew Point 74 °F    
Average Humidity 79    
Maximum Humidity 94    
Minimum Humidity 64    
Precipitation  
Precipitation 0.00 in 0.15 in 1.93 in (1984)
Month to date precipitation 9.21 5.07  
Year to date precipitation 21.05 19.28  
Sea Level Pressure  
Sea Level Pressure 29.93 in    
Wind  
Wind Speed 5 mph (North)    
Max Wind Speed 17 mph    
Max Gust Speed 22 mph    
Visibility 10 miles    
Events      
T = Trace of Precipitation, MM = Missing Value Source: NWS Daily Summary

Daily Weather History Graph

Daily Weather History Graph

Search for Another Location

Airport or City:

Trip Planner

Search our weather history database for the weather conditions in past years. The results will help you decide how hot, cold, wet, or windy it might be!

Date:

Astronomy

Sep. 29, 2013 Rise Set
Actual Time 7:22 AM CDT 7:18 PM CDT
Civil Twilight 6:59 AM CDT 7:41 PM CDT
Nautical Twilight 6:32 AM CDT 8:08 PM CDT
Astronomical Twilight 6:05 AM CDT 8:35 PM CDT
Moon 2:30 AM CDT (9/29) 3:52 PM CDT (9/29)
Length of Visible Light 12h 42m
Length of Day
11h 56m
Waning Crescent, 27% of the Moon is Illuminated
Sep 29
Waning Crescent
Oct 4
New
Oct 11
First Quarter
Oct 18
Full
Oct 26
Last Quarter

Hourly Weather History & Observations

Time (CDT) Temp. Heat Index Dew Point Humidity Pressure Visibility Wind Dir Wind Speed Gust Speed Precip Events Conditions
12:52 AM 75.9 °F - 73.9 °F 94% 29.94 in 10.0 mi SE 8.1 mph - N/A   Clear
1:52 AM 75.9 °F - 73.9 °F 94% 29.94 in 10.0 mi SE 6.9 mph - N/A   Clear
2:52 AM 75.0 °F - 72.0 °F 90% 29.94 in 10.0 mi Calm Calm - N/A   Clear
3:52 AM 73.0 °F - 72.0 °F 96% 29.94 in 10.0 mi Calm Calm - N/A   Clear
4:52 AM 73.9 °F - 72.0 °F 93% 29.94 in 10.0 mi Calm Calm - N/A   Clear
5:52 AM 73.9 °F - 72.0 °F 93% 29.95 in 10.0 mi Calm Calm - N/A   Scattered Clouds
6:52 AM 73.0 °F - 72.0 °F 96% 29.93 in 10.0 mi SE 5.8 mph - N/A   Clear
7:52 AM 73.0 °F - 72.0 °F 96% 29.94 in 10.0 mi Calm Calm - N/A   Clear
8:52 AM 78.1 °F - 75.9 °F 93% 29.97 in 10.0 mi Calm Calm - N/A   Clear
9:52 AM 82.0 °F 90.2 °F 77.0 °F 85% 29.98 in 10.0 mi WSW 4.6 mph - N/A   Clear
10:33 AM 82.4 °F 90.9 °F 77.0 °F 84% 30.00 in 10.0 mi WNW 5.8 mph - N/A   Mostly Cloudy
10:43 AM 82.4 °F 90.9 °F 77.0 °F 84% 29.99 in 10.0 mi Variable 4.6 mph - N/A   Scattered Clouds
10:52 AM 82.0 °F 90.2 °F 77.0 °F 85% 29.99 in 10.0 mi NNW 3.5 mph - N/A   Partly Cloudy
11:52 AM 86.0 °F 96.0 °F 75.9 °F 72% 29.97 in 10.0 mi SSW 4.6 mph - N/A   Partly Cloudy
12:52 PM 87.1 °F 96.3 °F 75.0 °F 67% 29.95 in 10.0 mi SW 5.8 mph - N/A   Mostly Cloudy
1:52 PM 89.1 °F 99.1 °F 75.0 °F 63% 29.91 in 10.0 mi WSW 3.5 mph - N/A   Partly Cloudy
2:52 PM 89.1 °F 99.1 °F 75.0 °F 63% 29.88 in 10.0 mi NW 6.9 mph - N/A   Scattered Clouds
3:52 PM 86.0 °F 93.0 °F 73.0 °F 65% 29.87 in 10.0 mi NW 17.3 mph 21.9 mph N/A   Scattered Clouds
4:52 PM 84.0 °F 90.2 °F 73.0 °F 69% 29.86 in 10.0 mi NW 13.8 mph 20.7 mph N/A   Clear
5:52 PM 86.0 °F 93.0 °F 73.0 °F 65% 29.87 in 10.0 mi North 11.5 mph - N/A   Clear
6:52 PM 84.9 °F 90.7 °F 72.0 °F 65% 29.88 in 10.0 mi North 9.2 mph - N/A   Mostly Cloudy
7:23 PM 82.4 °F 89.5 °F 75.2 °F 79% 29.89 in 10.0 mi NE 9.2 mph - N/A   Overcast
7:35 PM 82.4 °F 89.5 °F 75.2 °F 79% 29.90 in 10.0 mi NE 6.9 mph - N/A   Overcast
7:52 PM 81.0 °F 87.3 °F 75.9 °F 85% 29.90 in 10.0 mi NE 6.9 mph - N/A   Overcast
8:52 PM 79.0 °F - 75.0 °F 88% 29.92 in 10.0 mi East 6.9 mph - N/A   Partly Cloudy
9:52 PM 77.0 °F - 73.9 °F 90% 29.93 in 10.0 mi East 5.8 mph - N/A   Mostly Cloudy
10:52 PM 78.1 °F - 75.0 °F 90% 29.94 in 10.0 mi East 4.6 mph - N/A   Clear
11:52 PM 77.0 °F - 73.9 °F 90% 29.92 in 10.0 mi Calm Calm - N/A   Scattered Clouds